Stations météo

réclame
Mon MeteoGroup
Waldmünchen, Allemagne (10782): Température de l'air & dewpoint: 08.08.2018 23:00:00 - 14.08.2018 23:00:00 (CEST)Waldmünchen, Allemagne (10782): Température de l'air 5cm & Température de l'air -5cm: 08.08.2018 23:00:00 - 14.08.2018 23:00:00 (CEST)Waldmünchen, Allemagne (10782): Température de l'air -20cm & Température de l'air -100cm: 08.08.2018 23:00:00 - 14.08.2018 23:00:00 (CEST)Waldmünchen, Allemagne (10782): Vitesse du vent & gusts: 08.08.2018 23:00:00 - 14.08.2018 23:00:00 (CEST)Waldmünchen, Allemagne (10782): Direction du vent: 08.08.2018 23:00:00 - 14.08.2018 23:00:00 (CEST)Waldmünchen, Allemagne (10782): reduced air pressure: 08.08.2018 23:00:00 - 14.08.2018 23:00:00 (CEST)Waldmünchen, Allemagne (10782): visibility: 08.08.2018 23:00:00 - 14.08.2018 23:00:00 (CEST)Waldmünchen, Allemagne (10782): Ensoleillement: 08.08.2018 23:00:00 - 14.08.2018 23:00:00 (CEST)Waldmünchen, Allemagne (10782): Quantités de précipitations: 08.08.2018 23:00:00 - 14.08.2018 23:00:00 (CEST)
Date & Time tt [°C] td [°C] tt 5cm [°C] tt -5cm [°C] tt -20cm [°C] tt -100cm [°C] ff [km/h] ff [knt] fx [km/h] fx [knt] dd ppp [hPa] vv [km] sd [min] rr [mm]
14.08.2018 23:00:00 15,7 12,3 14,2 18,0 21,8 18,9 5 3 6 4 NE 1017,6 40 0 0,0
14.08.2018 22:00:00 16,5 12,0 13,7 18,8 22,0 18,9 7 4 22 12 W 1017,2 33 0 0,0
14.08.2018 21:00:00 18,4 12,1 17,7 20,3 22,2 18,9 15 8 29 16 WSW 1016,3 41 4 0,0
14.08.2018 20:00:00 19,9 11,4 19,4 21,8 22,3 18,9 17 9 29 16 W 1014,7 46 1 0,0
14.08.2018 19:00:00 20,9 10,6 21,7 23,9 22,2 18,9 23 12 33 18 WNW 1014,0 46 39 0,0
14.08.2018 18:00:00 21,1 10,4 21,6 25,4 21,9 18,9 22 12 36 20 W 1013,9 56 16 0,0
14.08.2018 17:00:00 22,2 11,1 24,5 27,6 21,6 18,9 20 11 37 20 WSW 1013,2 40 58 0,0
14.08.2018 16:00:00 22,1 10,7 25,9 26,8 21,4 18,9 27 15 43 23 W 1013,3 27 52 0,0
14.08.2018 15:00:00 21,3 11,6 22,6 24,2 21,3 18,9 24 13 36 20 WNW 1013,4 47 14 0,0
14.08.2018 14:00:00 21,2 11,5 26,6 23,2 21,2 18,9 16 9 29 16 W 1013,4 43 7 0,0
14.08.2018 13:00:00 19,5 12,4 20,4 23,7 21,0 18,9 23 12 31 17 W 1013,5 46 17 0,0
14.08.2018 12:00:00 20,2 14,0 23,6 24,5 20,8 18,9 18 10 31 17 WSW 1013,2 40 37 0,0
14.08.2018 11:00:00 19,1 14,0 21,9 21,3 20,8 18,9 18 10 35 19 WSW 1013,5 32 26 0,0
14.08.2018 10:00:00 17,2 13,5 16,9 19,7 20,9 18,9 14 8 24 13 WSW 1013,7 25 12 0,0
14.08.2018 09:00:00 16,8 14,4 16,8 18,8 21,0 18,9 13 7 20 11 W 1013,3 17 1 0,0
14.08.2018 08:00:00 16,4 15,0 16,3 18,4 21,2 18,9 9 5 12 7 SW 1013,1 10 0 0,0
14.08.2018 07:00:00 16,4 15,4 16,4 18,1 21,4 18,9 6 3 8 4 SW 1012,4 7 0 0,0
14.08.2018 06:00:00 16,2 15,5 16,2 18,0 21,6 18,9 5 3 8 4 SSW 1012,1 4,6 0 0,0
14.08.2018 05:00:00 16,1 15,3 16,1 18,2 21,8 18,9 5 3 13 7 W 1011,8 6 0 0,0
14.08.2018 04:00:00 16,5 15,4 16,3 18,5 22,1 18,9 5 3 12 6 WSW 1011,6 10 0 0,0
14.08.2018 03:00:00 16,7 15,6 16,4 18,6 22,4 18,9 9 5 16 9 S 1011,5 12 0 0,0
14.08.2018 02:00:00 16,5 15,7 16,4 18,7 22,7 19,0 9 5 14 8 SW 1011,9 9 0 0,0
14.08.2018 01:00:00 16,4 15,5 16,2 19,1 23,0 19,0 7 4 14 7 SW 1011,7 20 0 1,1
14.08.2018 00:00:00 16,3 15,5 16,2 19,9 23,3 19,0 9 5 13 7 W 1011,9 2,6 0 0,2
13.08.2018 23:00:00 16,4 15,7 16,4 20,7 23,7 19,0 5 3 8 5 ENE 1011,2 10 0 1,4
13.08.2018 22:00:00 16,8 15,7 16,4 21,9 23,9 19,0 5 3 16 9 SE 1011,9 7 0 3,7
13.08.2018 21:00:00 17,2 14,9 16,2 23,8 24,1 19,0 17 9 26 14 WSW 1011,3 1,1 0 1,0
13.08.2018 20:00:00 20,9 12,7 20,8 25,9 24,2 19,0 22 12 45 25 W 1009,4 42 0 0,0
13.08.2018 19:00:00 23,8 12,1 23,7 28,0 24,2 19,0 19 11 33 18 W 1008,2 41 0 0,0
13.08.2018 18:00:00 25,6 12,1 26,8 29,8 24,0 19,0 21 11 40 22 WNW 1007,4 40 2 0,0
13.08.2018 17:00:00 26,7 11,9 27,8 32,5 23,6 19,0 26 14 46 25 W 1006,8 34 25 0,0
13.08.2018 16:00:00 29,4 10,4 33,6 33,8 23,1 19,0 24 13 43 23 W 1006,2 26 54 0,0
13.08.2018 15:00:00 29,2 9,6 33,7 32,5 22,6 19,0 23 12 38 20 WSW 1006,6 39 29 0,0
13.08.2018 14:00:00 29,9 11,1 35,5 32,3 22,0 19,0 23 12 32 18 SW 1006,8 30 27 0,0
13.08.2018 13:00:00 29,8 13,2 36,4 33,8 21,3 19,0 12 6 35 19 SW 1007,2 27 56 0,0
13.08.2018 12:00:00 28,2 13,2 35,3 31,5 20,8 19,0 19 10 32 17 S 1007,9 22 60 0,0
13.08.2018 11:00:00 26,5 12,3 31,2 27,9 20,4 19,0 13 7 22 12 SSW 1008,6 28 60 0,0
13.08.2018 10:00:00 24,8 11,7 28,1 24,1 20,2 19,1 14 7 22 12 S 1009,3 18 60 0,0
13.08.2018 09:00:00 20,9 11,9 24,0 19,7 20,3 19,1 0 0 4 2 N 1010,4 31 60 0,0
13.08.2018 08:00:00 15,3 9,7 17,3 16,6 20,5 19,1 4 2 6 4 E 1011,6 28 60 0,0
13.08.2018 07:00:00 11,8 8,8 11,5 15,0 20,8 19,1 3 1 6 4 SSE 1012,3 25 18 0,0
13.08.2018 06:00:00 10,4 8,6 8,4 15,3 21,1 19,1 0 0 5 3 N 1012,6 27 0 0,0
13.08.2018 05:00:00 10,4 8,4 9,2 15,7 21,5 19,1 3 2 5 3 E 1012,9 26 0 0,0
13.08.2018 04:00:00 11,1 8,2 9,4 16,2 21,8 19,1 3 2 5 3 NE 1013,1 31 0 0,0
13.08.2018 03:00:00 11,1 8,3 9,8 16,6 22,2 19,1 0 0 5 3 N 1013,4 35 0 0,0
13.08.2018 02:00:00 11,5 8,3 9,6 17,3 22,6 19,1 4 2 5 3 ENE 1013,6 33 0 0,0
13.08.2018 01:00:00 12,0 8,9 10,4 18,1 23,0 19,1 5 3 7 4 E 1014,0 35 0 0,0
13.08.2018 00:00:00 12,8 9,3 11,2 19,1 23,4 19,2 4 2 5 3 E 1014,1 33 0 0,0
12.08.2018 23:00:00 13,9 9,4 11,6 20,4 23,7 19,2 4 2 8 5 ENE 1014,0 31 0 0,0
12.08.2018 22:00:00 15,3 9,8 13,2 22,2 24,0 19,2 6 4 10 5 E 1014,0 39 0 0,0
12.08.2018 21:00:00 18,5 9,3 15,7 24,9 24,2 19,2 5 3 9 5 ENE 1013,2 44 4 0,0
12.08.2018 20:00:00 24,3 8,5 21,9 27,9 24,1 19,2 5 3 11 6 S 1012,0 47 57 0,0
12.08.2018 19:00:00 25,8 5,9 26,4 30,8 23,9 19,2 7 4 23 13 SSW 1012,2 50 60 0,0
12.08.2018 18:00:00 27,0 5,6 31,0 33,0 23,4 19,2 6 4 22 12 WSW 1012,6 48 60 0,0
12.08.2018 17:00:00 26,9 5,5 31,2 34,9 22,8 19,2 13 7 25 13 WSW 1013,1 39 60 0,0
12.08.2018 16:00:00 26,1 5,0 33,9 35,5 22,0 19,2 14 8 24 13 W 1013,9 39 60 0,0
12.08.2018 15:00:00 26,4 6,0 33,3 35,0 21,2 19,3 13 7 26 14 SW 1014,7 31 60 0,0
12.08.2018 14:00:00 25,3 5,5 34,5 34,2 20,5 19,3 7 4 20 11 ESE 1015,7 30 60 0,0
12.08.2018 13:00:00 24,0 5,9 31,8 32,0 19,8 19,3 7 4 18 10 W 1016,8 40 60 0,0
12.08.2018 12:00:00 22,8 5,7 30,2 28,3 19,2 19,3 10 5 24 13 SSW 1017,7 44 60 0,0
12.08.2018 11:00:00 22,1 6,6 26,8 25,1 18,8 19,3 10 6 17 9 S 1018,1 42 60 0,0
12.08.2018 10:00:00 20,5 6,7 23,4 20,9 18,7 19,3 4 2 8 5 WSW 1018,7 42 60 0,0
12.08.2018 09:00:00 16,0 7,9 17,9 16,6 18,8 19,3 0 0 4 2 N 1020,0 36 60 0,0
12.08.2018 08:00:00 11,4 6,3 12,9 13,4 19,1 19,3 0 0 4 2 N 1021,4 33 60 0,0
12.08.2018 07:00:00 7,3 5,8 7,1 11,9 19,4 19,3 4 2 9 5 NE 1022,5 24 12 0,0
12.08.2018 06:00:00 6,9 5,9 5,0 12,2 19,7 19,3 2 1 5 3 ENE 1022,7 22 0 0,0
12.08.2018 05:00:00 7,1 6,0 5,5 12,7 20,1 19,4 4 2 5 3 E 1023,0 24 0 0,0
12.08.2018 04:00:00 7,9 6,9 5,7 13,3 20,4 19,4 2 1 5 3 NE 1023,3 24 0 0,0
12.08.2018 03:00:00 8,4 7,3 6,5 14,0 20,8 19,4 5 3 5 3 E 1023,5 23 0 0,0
12.08.2018 02:00:00 9,2 7,6 7,5 14,7 21,1 19,4 1 0 7 4 E 1023,7 27 0 0,0
12.08.2018 01:00:00 10,4 8,5 8,5 15,6 21,5 19,4 4 2 11 6 E 1023,6 30 0 0,0
12.08.2018 00:00:00 10,7 8,3 9,6 16,6 21,8 19,4 8 5 11 6 E 1023,6 30 0 0,0
11.08.2018 23:00:00 12,1 9,1 11,2 17,7 22,1 19,4 5 3 10 5 E 1023,1 30 0 0,0
11.08.2018 22:00:00 13,9 9,4 12,5 19,0 22,4 19,4 6 4 9 5 E 1022,6 39 0 0,0
11.08.2018 21:00:00 16,4 7,5 13,3 21,1 22,5 19,4 6 3 16 8 NE 1021,6 45 8 0,0
11.08.2018 20:00:00 20,3 6,3 18,8 23,6 22,5 19,5 12 7 27 15 W 1020,4 44 55 0,0
11.08.2018 19:00:00 22,0 6,3 23,6 25,8 22,3 19,5 17 9 32 18 WNW 1020,2 46 43 0,0
11.08.2018 18:00:00 21,8 5,3 23,2 27,9 22,0 19,5 24 13 39 21 W 1020,3 47 54 0,0
11.08.2018 17:00:00 22,7 5,9 26,9 28,8 21,6 19,5 24 13 40 22 WSW 1020,1 31 51 0,0
11.08.2018 16:00:00 23,2 6,5 28,1 28,6 21,2 19,5 26 14 38 21 W 1020,5 41 42 0,0
11.08.2018 15:00:00 21,2 7,8 24,7 28,3 20,7 19,5 23 12 49 26 W 1021,2 52 36 0,0
11.08.2018 14:00:00 20,3 9,9 22,8 27,4 20,2 19,5 19 10 31 17 WSW 1021,5 35 30 0,0
11.08.2018 13:00:00 19,9 9,9 23,7 25,6 19,9 19,5 16 9 29 16 SW 1022,0 33 23 0,0
11.08.2018 12:00:00 18,8 11,5 22,7 22,9 19,6 19,5 14 8 26 14 W 1022,4 30 8 0,0
11.08.2018 11:00:00 18,1 11,7 21,0 22,2 19,4 19,5 18 10 26 14 WSW 1022,8 24 39 0,0
11.08.2018 10:00:00 17,0 11,7 18,9 19,7 19,3 19,5 12 7 20 11 W 1023,0 23 43 0,0
11.08.2018 09:00:00 14,9 10,7 14,9 17,1 19,4 19,5 9 5 17 9 SW 1023,5 18 60 0,0
11.08.2018 08:00:00 10,9 10,3 12,5 14,0 19,6 19,5 3 1 6 3 E 1024,4 13 9 0,0
11.08.2018 07:00:00 9,1 8,7 9,5 13,2 19,9 19,5 2 1 4 2 ESE 1024,7 8 1 0,0
11.08.2018 06:00:00 8,3 8,1 8,0 13,0 20,2 19,5 3 2 7 4 ENE 1024,6 4,7 0 0,0
11.08.2018 05:00:00 8,5 8,3 8,2 13,1 20,5 19,5 5 3 10 6 E 1024,8 0,1 0 0,0
11.08.2018 04:00:00 8,8 8,7 8,6 13,5 20,8 19,5 10 5 12 7 E 1025,0 0,1 0 0,0
11.08.2018 03:00:00 9,5 9,2 8,9 14,0 21,2 19,5 0 0 9 5 N 1025,2 0,3 0 0,0
11.08.2018 02:00:00 10,2 9,8 9,4 14,5 21,5 19,5 7 4 10 5 E 1025,6 0,9 0 0,0
11.08.2018 01:00:00 11,4 10,8 9,7 15,3 21,8 19,5 4 2 8 4 ENE 1025,7 5 0 0,0
11.08.2018 00:00:00 12,7 11,4 10,7 16,0 22,1 19,5 4 2 8 4 ENE 1025,4 15 0 0,0
10.08.2018 23:00:00 13,3 11,6 10,9 17,1 22,4 19,5 2 1 14 8 WNW 1025,3 22 0 0,0
10.08.2018 22:00:00 15,0 11,7 13,5 18,2 22,7 19,5 8 4 13 7 S 1025,1 34 0 0,0
10.08.2018 21:00:00 15,5 11,7 14,6 19,3 22,8 19,5 10 5 17 9 S 1024,6 35 11 0,0
10.08.2018 20:00:00 17,1 10,4 16,1 21,0 22,9 19,5 8 4 17 9 S 1024,0 48 9 0,0
10.08.2018 19:00:00 17,7 10,0 18,3 22,6 22,9 19,5 9 5 16 9 SSW 1023,9 55 19 0,0
10.08.2018 18:00:00 18,0 9,9 20,9 23,7 22,9 19,5 10 5 16 8 SSW 1023,8 45 33 0,0
10.08.2018 17:00:00 18,4 11,2 23,7 23,5 22,9 19,5 8 5 18 10 SW 1024,1 42 21 0,1
10.08.2018 16:00:00 16,6 11,5 16,6 22,2 22,9 19,5 13 7 17 9 WSW 1024,7 29 0 0,0
10.08.2018 15:00:00 16,0 13,0 16,7 21,0 23,1 19,5 8 5 18 10 SW 1024,8 21 0 0,3
10.08.2018 14:00:00 15,3 12,6 15,0 20,6 23,2 19,5 13 7 24 13 W 1024,9 9 0 1,2
10.08.2018 13:00:00 17,0 12,2 16,4 21,5 23,3 19,5 17 9 27 14 W 1024,2 23 0 0,0
10.08.2018 12:00:00 17,3 12,9 17,9 22,0 23,4 19,5 17 9 27 15 W 1023,8 33 0 0,0
10.08.2018 11:00:00 17,7 13,2 18,0 22,4 23,5 19,5 19 11 30 16 W 1023,0 35 0 0,0
10.08.2018 10:00:00 17,9 13,7 18,8 21,8 23,6 19,5 17 9 24 13 WSW 1022,5 34 0 0,0
10.08.2018 09:00:00 17,7 15,3 17,8 21,2 23,8 19,5 11 6 17 9 SW 1022,0 22 0 0,1
10.08.2018 08:00:00 17,1 15,7 17,1 20,6 24,1 19,5 3 2 10 5 S 1021,5 16 0 0,6
10.08.2018 07:00:00 16,8 15,3 16,3 20,5 24,3 19,5 6 3 22 12 SW 1020,9 11 0 0,4
10.08.2018 06:00:00 17,8 14,3 16,2 20,8 24,6 19,5 18 10 25 14 W 1020,0 21 0 0,1
10.08.2018 05:00:00 19,1 14,4 18,3 21,1 24,9 19,5 16 9 24 13 W 1018,7 39 0 0,0
10.08.2018 04:00:00 19,4 14,5 17,4 21,6 25,2 19,5 16 9 28 15 W 1018,2 36 0 0,0
10.08.2018 03:00:00 17,9 16,1 17,2 22,2 25,5 19,5 4 2 7 4 NNE 1018,1 21 0 0,2
10.08.2018 02:00:00 19,6 14,5 17,0 22,5 25,8 19,5 11 6 26 14 W 1017,9 23 0 0,2
10.08.2018 01:00:00 20,8 13,4 19,8 22,6 26,2 19,5 11 6 26 14 WSW 1017,4 37 0 0,0
10.08.2018 00:00:00 21,0 13,1 19,7 23,0 26,6 19,5 14 8 43 23 W 1016,4 36 0 0,0
09.08.2018 23:00:00 22,0 13,6 20,1 24,1 27,0 19,5 17 9 30 16 W 1014,7 33 0 0,0
09.08.2018 22:00:00 22,1 15,7 18,3 25,6 27,4 19,5 5 3 28 15 ENE 1013,0 24 0 0,0
09.08.2018 21:00:00 22,8 17,0 19,9 28,3 27,6 19,5 13 7 31 17 W 1011,7 27 0 0,4
09.08.2018 20:00:00 27,6 14,7 24,5 31,7 27,5 19,5 6 3 19 10 W 1010,0 25 11 0,0
09.08.2018 19:00:00 30,1 12,2 29,4 35,0 27,3 19,5 8 5 24 13 SSW 1009,3 32 48 0,0
09.08.2018 18:00:00 31,6 12,2 35,3 37,1 27,0 19,5 14 8 30 16 SW 1009,0 40 60 0,0
09.08.2018 17:00:00 32,2 12,0 36,6 38,6 26,4 19,5 18 10 30 16 SSW 1008,8 27 60 0,0
09.08.2018 16:00:00 31,9 13,2 38,0 38,7 25,8 19,4 15 8 32 17 SSW 1009,2 21 58 0,0
09.08.2018 15:00:00 31,8 12,3 38,5 38,1 25,2 19,4 10 5 27 15 SE 1009,9 30 56 0,0
09.08.2018 14:00:00 30,6 14,4 37,4 36,1 24,6 19,4 19 10 27 14 S 1010,7 17 39 0,0
09.08.2018 13:00:00 30,1 14,0 38,2 35,5 24,0 19,4 8 4 19 10 ENE 1011,3 27 57 0,0
09.08.2018 12:00:00 28,9 13,2 35,8 33,1 23,5 19,4 10 5 16 9 SSE 1012,0 23 60 0,0
09.08.2018 11:00:00 28,1 13,5 32,7 30,1 23,2 19,4 5 3 12 6 WSW 1012,9 35 56 0,0
09.08.2018 10:00:00 25,8 13,5 29,1 26,1 23,1 19,4 2 1 6 4 SW 1013,8 25 60 0,0
09.08.2018 09:00:00 20,7 15,0 22,6 21,7 23,2 19,4 4 2 5 3 W 1015,1 17 16 0,0
09.08.2018 08:00:00 17,4 14,0 18,4 20,2 23,4 19,4 2 1 6 3 E 1015,5 18 26 0,0
09.08.2018 07:00:00 14,8 12,9 15,2 18,9 23,7 19,4 5 3 7 4 E 1016,2 16 12 0,0
09.08.2018 06:00:00 14,3 12,9 12,7 19,1 24,0 19,4 3 2 9 5 W 1016,3 16 0 0,0
09.08.2018 05:00:00 14,5 12,5 13,0 19,6 24,4 19,4 6 3 8 5 E 1016,3 21 0 0,0
09.08.2018 04:00:00 15,3 12,9 14,1 20,1 24,7 19,4 2 1 8 4 E 1016,1 22 0 0,0
09.08.2018 03:00:00 16,2 13,0 15,0 20,7 25,0 19,4 4 2 10 5 ENE 1016,0 23 0 0,0
09.08.2018 02:00:00 16,1 13,2 14,2 21,3 25,4 19,4 4 2 12 6 NNE 1016,6 21 0 0,0
09.08.2018 01:00:00 17,0 13,1 15,4 22,1 25,7 19,4 2 1 9 5 ENE 1016,5 25 0 0,0
09.08.2018 00:00:00 17,2 13,7 16,0 23,0 26,1 19,4 6 3 7 4 E 1016,4 22 0 0,0
08.08.2018 23:00:00 18,7 14,5 17,2 24,1 26,4 19,4 6 3 11 6 E 1015,6 24 0 0,0

tt = Température de l'air
td = dewpoint
tt 5cm = Température de l'air 5cm
tt -5cm = Température de l'air -5cm
tt -20cm = Température de l'air -20cm
tt -100cm = Température de l'air -100cm
ff = Vitesse du vent
fx = gusts
dd = Direction du vent
ppp = reduced air pressure
vv = visibility
sd = Ensoleillement
rr = Quantités de précipitations

stations d'obs. à proximité